Location: Barrialito
(9.8982°N, 67.7750°W)
Time: 22:58:17
(UTC+00:00)

Cosmos 2221 Rocket - Pass Details

Date: 18 April 2024
Orbit: 618 x 645 km, 82.5° (Epoch: 24 May)

Event Time Altitude Azimuth Distance (km) Brightness Sun altitude
Rises 23:10:52 0° 1° (N) 2,943 7.2 -7.9°
Reaches altitude 10° 23:13:08 10° 5° (N) 2,033 6.3 -8.4°
Maximum altitude 23:17:35 61° 86° (E) 728 3.6 -9.5°
Drops below altitude 10° 23:22:02 10° 166° (SSE) 2,023 5.9 -10.5°
Sets 23:24:17 0° 169° (S) 2,928 6.8 -11.1°
